GW2492 Weather Reports


Display with metric or nautical units.
time (UTC)temp
F
wind
direction
speed
MPH
gust
MPH
rain 1hr
in
rain 24hr
in
rain mn
in
humidity
%
barometer
mb
20260510164548 83 132 11.0 20.0 0.00 0.00 0.00 64 1013.5
20260510163045 83 182 10.0 18.0 0.00 0.00 0.00 65 1013.3
20260510161546 83 157 6.0 18.0 0.00 0.00 0.00 66 1013.7
20260510160044 81 175 13.0 21.0 0.00 0.00 0.00 67 1013.5
20260510154544 81 168 9.0 16.0 0.00 0.00 0.00 69 1013.5
20260510153041 80 157 9.0 18.0 0.00 0.00 0.00 69 1013.7
20260510151547 80 151 13.0 22.0 0.00 0.00 0.00 70 1013.2
20260510150118 79 171 16.0 23.0 0.00 0.00 0.00 71 1013.2
20260510144543 78 195 14.0 21.0 0.00 0.00 0.00 74 1013.3
20260510143041 77 194 18.0 30.0 0.00 0.00 0.00 75 1012.3
20260510141548 76 209 23.0 34.0 0.00 0.00 0.00 77 1011.8
20260510140041 75 196 15.0 25.0 0.00 0.00 0.00 79 1011.8
20260510134546 74 215 20.0 28.0 0.00 0.00 0.00 81 1011.7
20260510133046 73 226 17.0 24.0 0.00 0.00 0.00 82 1011.6
20260510131544 73 203 21.0 28.0 0.00 0.00 0.00 82 1011.4
20260510130042 72 215 18.0 24.0 0.00 0.00 0.00 82 1011.1
20260510124543 71 200 19.0 26.0 0.00 0.00 0.00 83 1011.1
20260510123046 71 214 15.0 22.0 0.00 0.00 0.00 83 1010.9
20260510121545 70 204 17.0 25.0 0.00 0.00 0.00 83 1010.8
20260510120044 70 215 16.0 22.0 0.00 0.00 0.00 82 1010.7
20260510114550 70 198 15.0 21.0 0.00 0.00 0.00 82 1010.7
20260510113047 70 204 14.0 20.0 0.00 0.00 0.00 81 1010.7
20260510111548 71 198 15.0 22.0 0.00 0.00 0.00 80 1010.6
20260510110046 71 211 14.0 26.0 0.00 0.00 0.00 80 1010.5
20260510104546 71 196 14.0 21.0 0.00 0.00 0.00 80 1010.4
20260510103044 71 208 13.0 20.0 0.00 0.00 0.00 79 1010.3
20260510101546 71 198 11.0 17.0 0.00 0.00 0.00 78 1010.3
20260510100049 72 206 11.0 19.0 0.00 0.00 0.00 77 1010.3
20260510094555 71 184 7.0 13.0 0.00 0.00 0.00 78 1010.4
20260510093045 71 184 7.0 12.0 0.00 0.00 0.00 78 1010.3
20260510091544 72 192 9.0 15.0 0.00 0.00 0.00 76 1010.2
20260510090049 72 179 9.0 14.0 0.00 0.00 0.00 77 1010.0
20260510084543 72 189 10.0 14.0 0.00 0.00 0.00 77 1009.9
20260510083054 72 201 12.0 17.0 0.00 0.00 0.00 76 1009.9
20260510081543 72 197 13.0 17.0 0.00 0.00 0.00 76 1010.0
20260510080040 73 189 12.0 21.0 0.00 0.00 0.00 74 1010.0
20260510074556 73 197 12.0 17.0 0.00 0.00 0.00 74 1010.2
20260510073053 71 178 8.0 11.0 0.00 0.00 0.00 77 1010.3
20260510071546 69 160 7.0 9.0 0.00 0.00 0.00 78 1010.4
20260510070045 68 181 4.0 6.0 0.00 0.00 0.00 79 1010.3
20260510064540 69 167 4.0 5.0 0.00 0.00 0.00 78 1010.3
20260510063046 70 180 3.0 7.0 0.00 0.00 0.00 78 1010.6
20260510061547 70 184 7.0 8.0 0.00 0.00 0.00 77 1010.6
20260510060045 70 188 5.0 6.0 0.00 0.00 0.00 77 1010.7
20260510054544 71 185 6.0 8.0 0.00 0.00 0.00 77 1010.7
20260510053041 70 187 7.0 9.0 0.00 0.00 0.00 77 1010.7
20260510051557 70 211 5.0 6.0 0.00 0.00 0.00 77 1010.9
20260510050047 71 189 7.0 9.0 0.00 0.00 0.00 75 1010.8
20260510044547 73 183 9.0 12.0 0.00 0.00 0.00 71 1010.9
20260510043045 74 163 9.0 11.0 0.00 0.00 0.00 70 1010.9
20260510041542 74 162 8.0 11.0 0.00 0.00 0.00 71 1011.0
20260510040040 74 165 8.0 11.0 0.00 0.00 0.00 72 1010.9
20260510034547 74 152 7.0 10.0 0.00 0.00 0.00 71 1010.9
20260510030229 77 144 9.0 12.0 0.00 0.00 0.00 65 1010.5
20260510024941 77 153 8.0 11.0 0.00 0.00 0.00 65 1010.3
20260510023044 78 161 8.0 10.0 0.00 0.00 0.00 63 1010.2
20260510021653 79 155 8.0 10.0 0.00 0.00 0.00 61 1010.0
20260510020044 81 153 8.0 11.0 0.00 0.00 0.00 59 1009.7
20260510014540 82 150 6.0 10.0 0.00 0.00 0.00 56 1009.5
20260510013049 83 142 5.0 9.0 0.00 0.00 0.00 54 1009.3
20260510011547 85 153 5.0 9.0 0.00 0.00 0.00 52 1009.2
20260510010044 86 162 7.0 11.0 0.00 0.00 0.00 49 1009.2
20260510004548 87 160 9.0 15.0 0.00 0.00 0.00 48 1009.2
20260510003051 87 174 8.0 15.0 0.00 0.00 0.00 44 1009.1
20260510001546 87 182 6.0 12.0 0.00 0.00 0.00 46 1009.0
20260510000046 87 193 8.0 13.0 0.00 0.00 0.00 43 1009.0
20260509234550 88 193 6.0 10.0 0.00 0.00 0.00 44 1009.0
20260509233043 88 194 5.0 9.0 0.00 0.00 0.00 43 1009.1
20260509231552 88 159 6.0 14.0 0.00 0.00 0.00 45 1009.3
20260509230050 88 210 9.0 15.0 0.00 0.00 0.00 44 1009.3
20260509224544 88 180 6.0 14.0 0.00 0.00 0.00 46 1009.3
20260509223044 87 182 8.0 15.0 0.00 0.00 0.00 48 1009.2
20260509221542 87 192 5.0 13.0 0.00 0.00 0.00 47 1009.4
20260509220042 87 178 9.0 16.0 0.00 0.00 0.00 45 1009.5
20260509214543 87 212 8.0 16.0 0.00 0.00 0.00 50 1009.6
20260509213055 86 169 8.0 15.0 0.00 0.00 0.00 50 1009.8
20260509211543 86 196 8.0 13.0 0.00 0.00 0.00 52 1010.0
20260509210100 86 204 6.0 15.0 0.00 0.00 0.00 50 1010.1
20260509204545 85 175 5.0 15.0 0.00 0.00 0.00 53 1010.4
20260509203043 85 238 10.0 16.0 0.00 0.00 0.00 54 1010.6
20260509201544 85 169 8.0 13.0 0.00 0.00 0.00 58 1010.9
20260509200044 84 217 10.0 14.0 0.00 0.00 0.00 57 1011.0
20260509194545 84 229 7.0 15.0 0.00 0.00 0.00 59 1011.2
20260509193045 83 200 8.0 14.0 0.00 0.00 0.00 59 1011.2
20260509191544 83 192 10.0 17.0 0.00 0.00 0.00 61 1011.3
20260509190044 82 173 9.0 16.0 0.00 0.00 0.00 61 1011.6
20260509184551 82 205 10.0 16.0 0.00 0.00 0.00 63 1011.9
20260509183046 81 205 8.0 12.0 0.00 0.00 0.00 66 1012.1
20260509181556 80 222 5.0 16.0 0.00 0.00 0.00 66 1012.3
20260509180048 79 232 9.0 15.0 0.00 0.00 0.00 66 1012.8
20260509174543 78 214 5.0 11.0 0.00 0.00 0.00 72 1012.8
20260509173045 77 219 6.0 14.0 0.00 0.00 0.00 74 1012.9
20260509171550 77 242 7.0 11.0 0.00 0.00 0.00 75 1013.0
20260509170051 76 207 5.0 10.0 0.00 0.00 0.00 76 1013.1